Regional Weather Roundup
Issued by NWS

Home | Current Version | Previous Version | Graphics & Text | Print | Product List | Glossary On
Versions: 1 2 3 4 5 6 7 8 9 10 11 12 13 14 15 16 17 18 19 20 21 22 23 24 25 26 27 28 29 30 31 32 33 34 35 36 37 38 39 40 41 42 43 44 45 46 47 48 49 50
000
ASUS43 KIND 281509
RWRIN

WEATHER ROUNDUP FOR INDIANA
NATIONAL WEATHER SERVICE INDIANAPOLIS IN
1000 AM EST SUN DEC 28 2014

NOTE: "FAIR" INDICATES FEW OR NO CLOUDS BELOW 12,000 FEET WITH NO
SIGNIFICANT WEATHER AND/OR OBSTRUCTIONS TO VISIBILITY.

* - STATION DOES NOT REPORT WEATHER SUCH AS PRECIPITATION OR FOG.

+ - STATION NOT QUALITY CONTROLLED BY THE NATIONAL WEATHER SERVICE.
    USE DATA WITH CAUTION...ESPECIALLY DEWPOINT AND RELATIVE
    HUMIDITY OBSERVATIONS.

INZ001>003-010>013-019-020-281600-
NORTHWEST INDIANA

CITY           SKY/WX    TMP DP  RH WIND       PRES   REMARKS
GARY /AIRPORT/ PTSUNNY   28  19  69 W8        30.19R WCI  20
KNOX *+        CLOUDY    30  23  76 W8        30.17R WCI  22
LA PORTE +     CLOUDY    32  26  77 W6        30.18R WCI  26
MICHIGAN CITY+ CLOUDY    32  21  64 W5        30.18R WCI  27
MONTICELLO +   CLOUDY    29  26  88 W6        30.19R WCI  22
RENSSELAER +   CLOUDY    28  27  93 NW5       30.21R WCI  23
VALPARAISO     CLOUDY    28  22  78 W8        30.19R WCI  20

$$

LMZ046-743>745-281600-
SOUTHERN LAKE MICHIGAN

STATION/POSITION TIME  TEMP WIND        PRES
                       AIR  DIR/SP/G
                 (UTC) (F)  (DEG/KT/KT) (MB)
MICHIGAN CITY    1500   29  250/ 10/ 12   N/A

$$

INZ004-005-014>016-021>024-281600-
NORTH CENTRAL INDIANA

CITY           SKY/WX    TMP DP  RH WIND       PRES   REMARKS
ELKHART        CLOUDY    32  21  64 W8        30.16  WCI  25
GOSHEN         CLOUDY    33  26  75 W8        30.15R WCI  26
LOGANSPORT +   CLOUDY    30  27  86 W8        30.20R WCI  23
PERU/GRISSOM   CLOUDY    31  31 100 W10       30.18R WCI  22
ROCHESTER +    CLOUDY    34  30  86 W9        30.18R WCI  26
SOUTH BEND     CLOUDY    32  24  72 W8        30.17R WCI  25
WARSAW +       CLOUDY    32  28  86 W9        30.15R WCI  24

$$

INZ006>009-017-018-025>027-281600-
NORTHEAST INDIANA

CITY           SKY/WX    TMP DP  RH WIND       PRES   REMARKS
ANGOLA *+      CLOUDY    32  25  74 NW9       30.12R WCI  24
AUBURN +       CLOUDY    34  27  75 W8        30.15R WCI  27
FORT WAYNE     CLOUDY    33  29  85 W8        30.15R WCI  26
HUNTINGTON +   CLOUDY    32  26  77 NW8       30.16R WCI  25

$$

INZ028-029-035-036-043>045-051>053-281600-
WEST CENTRAL INDIANA

CITY           SKY/WX    TMP DP  RH WIND       PRES   REMARKS
GREENCASTLE +  CLOUDY    30  23  74 NW6       30.20R WCI  24
LAFAYETTE      CLOUDY    27  22  81 NW7       30.21R WCI  19
TERRE HAUTE    CLOUDY    30  24  78 NW9       30.22R WCI  22

$$

INZ030>032-037>040-046>048-054>057-064-065-281600-
CENTRAL INDIANA

CITY           SKY/WX    TMP DP  RH WIND       PRES   REMARKS
CP ATTERBURY + CLOUDY    32  28  86 MISG      30.20R
COLUMBUS       CLOUDY    32  27  80 NW9       30.19R WCI  24
FRANKFORT +    CLOUDY    30  30 100 W8        30.21R WCI  22
INDIANAPOLIS   CLOUDY    29  25  85 NW9       30.19R WCI  20
-EAGLE CREEK   CLOUDY    29  26  89 NW9       30.19R WCI  20
KOKOMO *+      CLOUDY    30  27  86 NW13      30.18R WCI  20
MARION +       CLOUDY    31  28  88 W10       30.17R WCI  22
MT COMFORT *+  CLOUDY    32  28  86 NW7       30.19R WCI  26
SHELBYVILLE    CLOUDY    33  28  81 N8        30.18R WCI  26
ZIONSVILLE +   CLOUDY    30  26  83 NW7       30.19R WCI  23

$$

INZ033-034-041-042-049-050-058-059-281600-
EAST CENTRAL INDIANA

CITY           SKY/WX    TMP DP  RH WIND       PRES   REMARKS
MUNCIE         CLOUDY    32  28  85 NW9       30.15R WCI  24

$$

INZ060-061-067>069-081>083-085>088-281600-
SOUTHWEST INDIANA

CITY           SKY/WX    TMP DP  RH WIND       PRES   REMARKS
EVANSVILLE     CLOUDY    35  28  75 N9        30.23R WCI  28
HUNTINGBURG *+ CLOUDY    34  27  75 N9G16     30.21S WCI  26
WASHINGTON +   CLOUDY    32  26  80 N8        30.21S WCI  25

$$

INZ062-063-066-070>080-084-089>092-281600-
SOUTH CENTRAL AND SOUTHEAST INDIANA

CITY           SKY/WX    TMP DP  RH WIND       PRES   REMARKS
BLOOMINGTON    CLOUDY    32  28  85 VRB6      30.19R WCI  26

$$



USA.gov is the U.S. government's official web portal to all federal, state and local government web resources and services.